This is the latest recevied weather packets stored in our database for station/object YT6PT-8. If no packets are shown the sender has not sent any weather packets the latest 10 day(s).
| Time | Temp. | Humidity | Pressure | Rain* | Wind** | Luminosity | Snow |
|---|---|---|---|---|---|---|---|
| 1787743233 | 21.67° C | 73% | 1009.2 hPa | 0 mm | 1.79 m/s, 338° | - | - |
| 1787742932 | 21.67° C | 73% | 1009.3 hPa | 0 mm | 1.79 m/s, 68° | - | - |
| 1787742632 | 21.67° C | 73% | 1009.3 hPa | 0 mm | 1.79 m/s, 68° | - | - |
| 1787742332 | 22.22° C | 73% | 1009.3 hPa | 0 mm | 3.58 m/s, 315° | - | - |
| 1787742039 | 22.22° C | 73% | 1009.3 hPa | 0 mm | 3.58 m/s, 315° | - | - |
| 1787741732 | 22.22° C | 73% | 1009.3 hPa | 0 mm | 3.13 m/s, 338° | - | - |
| 1787741432 | 22.22° C | 73% | 1009.3 hPa | 0 mm | 3.13 m/s, 338° | - | - |
| 1787741131 | 22.22° C | 74% | 1009.4 hPa | 0 mm | 1.34 m/s, 45° | - | - |
| 1787740833 | 22.22° C | 74% | 1009.4 hPa | 0 mm | 1.34 m/s, 45° | - | - |
| 1787740532 | 22.22° C | 75% | 1009.4 hPa | 0 mm | 0.89 m/s, 0° | - | - |
| 1787740249 | 22.22° C | 75% | 1009.4 hPa | 0 mm | 0.89 m/s, 0° | - | - |
| 1787739950 | 21.67° C | 72% | 1009.4 hPa | 0 mm | 1.79 m/s, 22° | - | - |
| 1787739651 | 21.67° C | 72% | 1009.4 hPa | 0 mm | 1.79 m/s, 22° | - | - |
| 1787739347 | 21.11° C | 76% | 1009.3 hPa | 0 mm | 1.79 m/s, 338° | - | - |
| 1787739049 | 21.11° C | 76% | 1009.3 hPa | 0 mm | 1.79 m/s, 338° | - | - |
| 1787738757 | 21.11° C | 76% | 1009.3 hPa | 0 mm | 2.24 m/s, 338° | - | - |
| 1787738432 | 21.11° C | 76% | 1009.3 hPa | 0 mm | 2.24 m/s, 338° | - | - |
| 1787738131 | 21.11° C | 78% | 1009.3 hPa | 0 mm | 3.13 m/s, 338° | - | - |
| 1787737840 | 21.11° C | 78% | 1009.3 hPa | 0 mm | 3.13 m/s, 338° | - | - |
| 1787737530 | 21.11° C | 78% | 1009.1 hPa | 0 mm | 2.24 m/s, 338° | - | - |
| 1787737232 | 21.11° C | 78% | 1009.1 hPa | 0 mm | 2.24 m/s, 338° | - | - |
| 1787736932 | 20.56° C | 79% | 1009.1 hPa | 0 mm | 2.24 m/s, 315° | - | - |
| 1787736632 | 20.56° C | 79% | 1009.1 hPa | 0 mm | 2.24 m/s, 315° | - | - |
| 1787736332 | 20° C | 79% | 1009.1 hPa | 0 mm | 1.79 m/s, 0° | - | - |
| 1787736038 | 20° C | 80% | 1009.1 hPa | 0 mm | 1.34 m/s, 338° | - | - |
* Rain latest hour (hover to see other rain measurements)
** Current wind speed in m/s (hover to see current wind gust speed)